TimeCEST,TemperatureF,Dew PointF,Humidity,Sea Level PressureIn,VisibilityMPH,Wind Direction,Wind SpeedMPH,Gust SpeedMPH,PrecipitationIn,Events,Conditions,WindDirDegrees,DateUTC
12:20 AM,59.0,57.2,94,30.18,1.2,NNE,4.6,-,N/A,Thunderstorm,Mostly Cloudy,20,2013-10-20 22:20:00
12:50 AM,59.0,57.2,94,30.18,1.2,Variable,3.5,-,N/A,,Mostly Cloudy,0,2013-10-20 22:50:00
1:20 AM,57.2,55.4,94,30.21,1.2,Variable,3.5,-,N/A,,Mostly Cloudy,0,2013-10-20 23:20:00
1:50 AM,57.2,55.4,94,30.21,1.6,Variable,2.3,-,N/A,,Mostly Cloudy,0,2013-10-20 23:50:00
2:20 AM,57.2,57.2,100,30.21,1.6,Variable,2.3,-,N/A,,Mostly Cloudy,0,2013-10-21 00:20:00
2:50 AM,57.2,55.4,94,30.21,1.6,Variable,2.3,-,N/A,,Mostly Cloudy,0,2013-10-21 00:50:00
3:20 AM,57.2,55.4,94,30.18,1.6,Variable,1.2,-,N/A,,Mostly Cloudy,0,2013-10-21 01:20:00
3:50 AM,57.2,57.2,100,30.18,1.6,Variable,1.2,-,N/A,,Mostly Cloudy,0,2013-10-21 01:50:00
4:20 AM,57.2,55.4,94,30.18,1.6,Variable,1.2,-,N/A,,Mostly Cloudy,0,2013-10-21 02:20:00
4:50 AM,57.2,55.4,94,30.18,1.6,Variable,1.2,-,N/A,,Mostly Cloudy,0,2013-10-21 02:50:00
5:20 AM,57.2,55.4,94,30.18,1.2,Variable,2.3,-,N/A,,Mostly Cloudy,0,2013-10-21 03:20:00
5:50 AM,57.2,55.4,94,30.18,1.2,Variable,3.5,-,N/A,,Mostly Cloudy,0,2013-10-21 03:50:00
6:20 AM,57.2,57.2,100,30.18,1.2,Calm,Calm,-,N/A,,Mostly Cloudy,0,2013-10-21 04:20:00
6:50 AM,57.2,57.2,100,30.18,1.2,Variable,1.2,-,N/A,,Mostly Cloudy,0,2013-10-21 04:50:00
7:20 AM,57.2,57.2,100,30.18,0.9,Variable,3.5,-,N/A,,Mostly Cloudy,0,2013-10-21 05:20:00
7:50 AM,57.2,57.2,100,30.18,0.6,North,5.8,-,N/A,,Mostly Cloudy,360,2013-10-21 05:50:00
8:20 AM,57.2,57.2,100,30.21,0.9,Variable,3.5,-,N/A,,Mostly Cloudy,0,2013-10-21 06:20:00
8:50 AM,59.0,57.2,94,30.21,0.9,North,4.6,-,N/A,,Mostly Cloudy,350,2013-10-21 06:50:00
9:20 AM,59.0,57.2,94,30.21,1.6,Variable,2.3,-,N/A,,Mostly Cloudy,0,2013-10-21 07:20:00
9:50 AM,59.0,57.2,94,30.21,1.6,Variable,2.3,-,N/A,,Mostly Cloudy,0,2013-10-21 07:50:00
10:20 AM,59.0,57.2,94,30.21,1.9,Variable,1.2,-,N/A,,Mostly Cloudy,0,2013-10-21 08:20:00
10:50 AM,60.8,57.2,88,30.24,2.5,Variable,1.2,-,N/A,,Mostly Cloudy,0,2013-10-21 08:50:00
11:20 AM,60.8,59.0,94,30.21,2.5,North,4.6,-,N/A,,Mostly Cloudy,360,2013-10-21 09:20:00
11:50 AM,60.8,59.0,94,30.24,3.1,Variable,1.2,-,N/A,,Scattered Clouds,0,2013-10-21 09:50:00
12:20 PM,62.6,59.0,88,30.24,3.1,Variable,2.3,-,N/A,,Scattered Clouds,0,2013-10-21 10:20:00
12:50 PM,62.6,59.0,88,30.21,3.7,Variable,1.2,-,N/A,,Scattered Clouds,0,2013-10-21 10:50:00
1:20 PM,64.4,60.8,88,30.21,4.3,Variable,1.2,-,N/A,,Scattered Clouds,0,2013-10-21 11:20:00
1:50 PM,64.4,59.0,83,30.21,4.3,Variable,1.2,-,N/A,,Scattered Clouds,0,2013-10-21 11:50:00
2:20 PM,66.2,59.0,78,30.21,4.3,Variable,2.3,-,N/A,,Scattered Clouds,0,2013-10-21 12:20:00
2:50 PM,64.4,57.2,77,30.18,5.0,Variable,3.5,-,N/A,,Scattered Clouds,0,2013-10-21 12:50:00
3:20 PM,64.4,59.0,83,30.18,6.2,Calm,Calm,-,N/A,,Scattered Clouds,0,2013-10-21 13:20:00
3:50 PM,64.4,59.0,83,30.18,5.6,Variable,2.3,-,N/A,,Scattered Clouds,0,2013-10-21 13:50:00
4:20 PM,64.4,59.0,83,30.18,5.6,Calm,Calm,-,N/A,,Scattered Clouds,0,2013-10-21 14:20:00
4:50 PM,64.4,57.2,77,30.18,5.6,Variable,2.3,-,N/A,,Scattered Clouds,0,2013-10-21 14:50:00
5:20 PM,62.6,57.2,82,30.21,5.6,Variable,2.3,-,N/A,,Scattered Clouds,0,2013-10-21 15:20:00
5:50 PM,64.4,57.2,77,30.18,5.0,Variable,2.3,-,N/A,,Scattered Clouds,0,2013-10-21 15:50:00
6:50 PM,62.6,60.8,94,30.18,5.6,Variable,1.2,-,N/A,,Mostly Cloudy,0,2013-10-21 16:50:00
7:20 PM,62.6,59.0,88,30.21,5.0,Variable,1.2,-,N/A,,Mostly Cloudy,0,2013-10-21 17:20:00
7:50 PM,62.6,59.0,88,30.21,4.3,Variable,2.3,-,N/A,,Mostly Cloudy,0,2013-10-21 17:50:00
8:20 PM,62.6,59.0,88,30.18,4.3,Variable,1.2,-,N/A,,Mostly Cloudy,0,2013-10-21 18:20:00
8:50 PM,60.8,59.0,94,30.21,3.1,Variable,2.3,-,N/A,,Mostly Cloudy,0,2013-10-21 18:50:00
9:20 PM,60.8,59.0,94,30.21,3.1,Variable,3.5,-,N/A,,Mostly Cloudy,0,2013-10-21 19:20:00
9:50 PM,60.8,59.0,94,30.21,2.8,Variable,3.5,-,N/A,,Mostly Cloudy,0,2013-10-21 19:50:00
10:20 PM,60.8,59.0,94,30.21,2.5,Variable,1.2,-,N/A,,Mostly Cloudy,0,2013-10-21 20:20:00
10:50 PM,60.8,59.0,94,30.21,2.5,Variable,1.2,-,N/A,,Mostly Cloudy,0,2013-10-21 20:50:00
11:20 PM,60.8,59.0,94,30.21,2.5,Calm,Calm,-,N/A,,Mostly Cloudy,0,2013-10-21 21:20:00
11:50 PM,60.8,59.0,94,30.21,1.9,Calm,Calm,-,N/A,,Mostly Cloudy,0,2013-10-21 21:50:00